START_TIME,STEP,MOV.,A39,t_acc.,A33,t_acc.,P32,t_acc.,P31,t_acc.
1979-03-06 12:00:20.280 ,3,0,3.,0.8,0.,0.8,1.,0.8,0.,0.8
1979-03-06 12:00:21.080 ,3,0,1.,0.8,0.,0.8,0.,0.8,0.,0.8
1979-03-06 12:00:21.890 ,3,0,2.,0.8,0.,0.8,1.,0.8,0.,0.8
1979-03-06 12:00:22.690 ,3,0,0.,0.8,0.,0.8,0.,0.8,0.,0.8
1979-03-06 12:00:23.490 ,3,0,3.,0.8,0.,0.8,0.,0.8,0.,0.8
1979-03-06 12:00:24.290 ,3,0,9.,0.8,0.,0.8,1.,0.8,0.,0.8
1979-03-06 12:00:25.090 ,3,0,352.,0.8,18.,0.8,24.,0.8,0.,0.8
1979-03-06 12:00:25.890 ,3,0,408.,0.8,15.,0.8,30.,0.8,0.,0.8
1979-03-06 12:00:26.690 ,3,0,360.,0.8,14.,0.8,34.,0.8,0.,0.8
1979-03-06 12:00:27.490 ,3,0,408.,0.8,17.,0.8,37.,0.8,0.,0.8
1979-03-06 12:00:28.290 ,3,0,360.,0.8,18.,0.8,29.,0.8,0.,0.8
1979-03-06 12:00:29.090 ,3,0,400.,0.8,14.,0.8,39.,0.8,1.,0.8
1979-03-06 12:00:29.890 ,3,0,,0,,0,,0,,0
1979-03-06 12:00:30.690 ,3,0,432.,0.8,19.,0.8,40.,0.8,0.,0.8
1979-03-06 12:00:31.490 ,3,0,608.,0.8,34.,0.8,58.,0.8,2.,0.8
1979-03-06 12:00:32.290 ,3,0,608.,0.8,33.,0.8,56.,0.8,1.,0.8
1979-03-06 12:00:33.090 ,3,0,608.,0.8,21.,0.8,68.,0.8,2.,0.8
1979-03-06 12:00:33.890 ,3,0,608.,0.8,20.,0.8,51.,0.8,0.,0.8
1979-03-06 12:00:34.690 ,3,0,608.,0.8,25.,0.8,54.,0.8,1.,0.8
1979-03-06 12:00:35.490 ,3,0,608.,0.8,22.,0.8,52.,0.8,2.,0.8
1979-03-06 12:00:36.290 ,3,0,592.,0.8,28.,0.8,56.,0.8,1.,0.8
1979-03-06 12:00:37.090 ,3,0,752.,0.8,33.,0.8,74.,0.8,0.,0.8
1979-03-06 12:00:37.890 ,3,0,784.,0.8,32.,0.8,70.,0.8,4.,0.8
1979-03-06 12:00:38.690 ,3,0,752.,0.8,30.,0.8,80.,0.8,1.,0.8
1979-03-06 12:00:39.490 ,3,0,752.,0.8,36.,0.8,64.,0.8,0.,0.8
1979-03-06 12:00:40.290 ,3,0,736.,0.8,33.,0.8,72.,0.8,1.,0.8
1979-03-06 12:00:41.090 ,3,0,704.,0.8,29.,0.8,80.,0.8,0.,0.8
1979-03-06 12:00:41.890 ,3,0,720.,0.8,20.,0.8,70.,0.8,1.,0.8
1979-03-06 12:00:42.690 ,3,0,720.,0.8,33.,0.8,51.,0.8,1.,0.8
1979-03-06 12:00:43.490 ,3,0,784.,0.8,39.,0.8,70.,0.8,6.,0.8
1979-03-06 12:00:44.290 ,0,0,800.,0.8,37.,0.8,63.,0.8,0.,0.8
1979-03-06 12:00:45.090 ,0,0,784.,0.8,37.,0.8,70.,0.8,0.,0.8
1979-03-06 12:00:45.890 ,0,0,784.,0.8,32.,0.8,59.,0.8,3.,0.8
1979-03-06 12:00:46.690 ,0,0,720.,0.8,44.,0.8,74.,0.8,4.,0.8
1979-03-06 12:00:47.490 ,0,0,784.,0.8,30.,0.8,59.,0.8,1.,0.8
1979-03-06 12:00:48.290 ,0,0,784.,0.8,49.,0.8,59.,0.8,5.,0.8
1979-03-06 12:00:49.090 ,0,0,752.,0.8,41.,0.8,68.,0.8,2.,0.8
1979-03-06 12:00:49.890 ,0,0,656.,0.8,28.,0.8,68.,0.8,3.,0.8
1979-03-06 12:00:50.690 ,0,0,656.,0.8,39.,0.8,76.,0.8,1.,0.8
1979-03-06 12:00:51.490 ,0,0,672.,0.8,33.,0.8,54.,0.8,2.,0.8
1979-03-06 12:00:52.290 ,0,0,688.,0.8,33.,0.8,54.,0.8,0.,0.8
1979-03-06 12:00:53.090 ,0,0,656.,0.8,25.,0.8,50.,0.8,1.,0.8
1979-03-06 12:00:53.890 ,0,0,624.,0.8,23.,0.8,55.,0.8,1.,0.8
1979-03-06 12:00:54.690 ,0,0,560.,0.8,22.,0.8,44.,0.8,2.,0.8
1979-03-06 12:00:55.490 ,0,0,400.,0.8,12.,0.8,46.,0.8,1.,0.8
1979-03-06 12:00:56.290 ,0,0,400.,0.8,22.,0.8,56.,0.8,1.,0.8
1979-03-06 12:00:57.090 ,0,0,408.,0.8,17.,0.8,39.,0.8,3.,0.8
1979-03-06 12:00:57.890 ,0,0,400.,0.8,17.,0.8,53.,0.8,1.,0.8
1979-03-06 12:00:58.690 ,0,0,352.,0.8,25.,0.8,46.,0.8,2.,0.8
1979-03-06 12:00:59.490 ,0,0,392.,0.8,22.,0.8,48.,0.8,0.,0.8
1979-03-06 12:01:00.290 ,0,0,424.,0.8,16.,0.8,41.,0.8,0.,0.8
1979-03-06 12:01:01.090 ,0,0,256.,0.8,14.,0.8,32.,0.8,2.,0.8
1979-03-06 12:01:01.890 ,0,0,236.,0.8,9.,0.8,24.,0.8,2.,0.8
1979-03-06 12:01:02.690 ,0,0,248.,0.8,6.,0.8,36.,0.8,0.,0.8
1979-03-06 12:01:03.490 ,0,0,196.,0.8,13.,0.8,30.,0.8,0.,0.8
1979-03-06 12:01:04.290 ,0,0,216.,0.8,10.,0.8,34.,0.8,0.,0.8
1979-03-06 12:01:05.090 ,0,0,252.,0.8,8.,0.8,35.,0.8,0.,0.8
1979-03-06 12:01:05.890 ,0,0,248.,0.8,10.,0.8,30.,0.8,2.,0.8
1979-03-06 12:01:06.690 ,0,0,244.,0.8,6.,0.8,19.,0.8,0.,0.8
1979-03-06 12:01:07.490 ,0,0,244.,0.8,7.,0.8,36.,0.8,0.,0.8
1979-03-06 12:01:08.290 ,4,0,256.,0.8,10.,0.8,39.,0.8,1.,0.8
1979-03-06 12:01:09.090 ,4,0,228.,0.8,8.,0.8,47.,0.8,2.,0.8
1979-03-06 12:01:09.890 ,4,0,220.,0.8,12.,0.8,30.,0.8,0.,0.8
1979-03-06 12:01:10.690 ,4,0,240.,0.8,14.,0.8,37.,0.8,0.,0.8
1979-03-06 12:01:11.490 ,4,0,244.,0.8,6.,0.8,47.,0.8,0.,0.8
1979-03-06 12:01:12.290 ,4,0,248.,0.8,9.,0.8,32.,0.8,0.,0.8
1979-03-06 12:01:13.090 ,4,0,448.,0.8,18.,0.8,50.,0.8,2.,0.8
1979-03-06 12:01:13.890 ,4,0,496.,0.8,29.,0.8,56.,0.8,0.,0.8
1979-03-06 12:01:14.690 ,4,0,528.,0.8,24.,0.8,64.,0.8,3.,0.8
1979-03-06 12:01:15.490 ,4,0,512.,0.8,26.,0.8,48.,0.8,3.,0.8
1979-03-06 12:01:16.290 ,4,0,528.,0.8,25.,0.8,62.,0.8,2.,0.8
1979-03-06 12:01:17.090 ,4,0,544.,0.8,18.,0.8,48.,0.8,2.,0.8
1979-03-06 12:01:17.890 ,4,0,512.,0.8,23.,0.8,70.,0.8,1.,0.8
1979-03-06 12:01:18.690 ,4,0,736.,0.8,32.,0.8,72.,0.8,1.,0.8
1979-03-06 12:01:19.490 ,4,0,1024.,0.8,48.,0.8,72.,0.8,6.,0.8
1979-03-06 12:01:20.290 ,4,0,1008.,0.8,44.,0.8,62.,0.8,5.,0.8
1979-03-06 12:01:21.090 ,4,0,976.,0.8,46.,0.8,88.,0.8,3.,0.8
1979-03-06 12:01:21.890 ,4,0,992.,0.8,52.,0.8,80.,0.8,1.,0.8
1979-03-06 12:01:22.690 ,4,0,1008.,0.8,56.,0.8,96.,0.8,0.,0.8
1979-03-06 12:01:23.490 ,4,0,1024.,0.8,44.,0.8,86.,0.8,3.,0.8
1979-03-06 12:01:24.290 ,4,0,1088.,0.8,47.,0.8,84.,0.8,3.,0.8
1979-03-06 12:01:25.090 ,4,0,1312.,0.8,59.,0.8,98.,0.8,6.,0.8
1979-03-06 12:01:25.890 ,4,0,1600.,0.8,62.,0.8,86.,0.8,2.,0.8
1979-03-06 12:01:26.690 ,4,0,1664.,0.8,74.,0.8,104.,0.8,9.,0.8
1979-03-06 12:01:27.490 ,4,0,1760.,0.8,68.,0.8,112.,0.8,11.,0.8
1979-03-06 12:01:28.290 ,4,0,1760.,0.8,74.,0.8,116.,0.8,6.,0.8
1979-03-06 12:01:29.090 ,4,0,1760.,0.8,64.,0.8,110.,0.8,4.,0.8
1979-03-06 12:01:29.890 ,4,0,1952.,0.8,100.,0.8,132.,0.8,7.,0.8
1979-03-06 12:01:30.690 ,4,0,2112.,0.8,102.,0.8,108.,0.8,4.,0.8
1979-03-06 12:01:31.490 ,4,0,2624.,0.8,116.,0.8,118.,0.8,9.,0.8
1979-03-06 12:01:32.290 ,7,0,2624.,0.8,112.,0.8,106.,0.8,12.,0.8
1979-03-06 12:01:33.090 ,7,0,2560.,0.8,116.,0.8,112.,0.8,9.,0.8
1979-03-06 12:01:33.890 ,7,0,2560.,0.8,118.,0.8,112.,0.8,6.,0.8
1979-03-06 12:01:34.690 ,7,0,2752.,0.8,136.,0.8,108.,0.8,18.,0.8
1979-03-06 12:01:35.490 ,7,0,2816.,0.8,140.,0.8,94.,0.8,16.,0.8
1979-03-06 12:01:36.290 ,7,0,2944.,0.8,132.,0.8,94.,0.8,12.,0.8
1979-03-06 12:01:37.090 ,7,0,1856.,0.8,88.,0.8,84.,0.8,7.,0.8
1979-03-06 12:01:37.890 ,7,0,1376.,0.8,64.,0.8,66.,0.8,4.,0.8
1979-03-06 12:01:38.690 ,7,0,1504.,0.8,61.,0.8,66.,0.8,2.,0.8
1979-03-06 12:01:39.490 ,7,0,1504.,0.8,61.,0.8,76.,0.8,3.,0.8
1979-03-06 12:01:40.290 ,7,0,1536.,0.8,86.,0.8,78.,0.8,3.,0.8
1979-03-06 12:01:41.090 ,7,0,1632.,0.8,72.,0.8,56.,0.8,3.,0.8
1979-03-06 12:01:41.890 ,7,0,1600.,0.8,72.,0.8,68.,0.8,6.,0.8
1979-03-06 12:01:42.690 ,7,0,992.,0.8,35.,0.8,43.,0.8,3.,0.8
1979-03-06 12:01:43.490 ,7,0,320.,0.8,14.,0.8,58.,0.8,4.,0.8
1979-03-06 12:01:44.290 ,7,0,352.,0.8,14.,0.8,55.,0.8,5.,0.8
1979-03-06 12:01:45.090 ,7,0,352.,0.8,23.,0.8,64.,0.8,2.,0.8
1979-03-06 12:01:45.890 ,7,0,328.,0.8,25.,0.8,58.,0.8,2.,0.8
1979-03-06 12:01:46.690 ,7,0,328.,0.8,17.,0.8,64.,0.8,6.,0.8
1979-03-06 12:01:47.490 ,7,0,328.,0.8,23.,0.8,72.,0.8,4.,0.8
1979-03-06 12:01:48.290 ,7,0,312.,0.8,16.,0.8,52.,0.8,4.,0.8
1979-03-06 12:01:49.090 ,7,0,52.,0.8,2.,0.8,14.,0.8,0.,0.8
1979-03-06 12:01:49.890 ,7,0,1.,0.8,0.,0.8,0.,0.8,0.,0.8
1979-03-06 12:01:50.690 ,7,0,2.,0.8,0.,0.8,0.,0.8,0.,0.8
1979-03-06 12:01:51.490 ,7,0,1.,0.8,0.,0.8,0.,0.8,0.,0.8
1979-03-06 12:01:52.290 ,7,0,3.,0.8,0.,0.8,0.,0.8,0.,0.8
1979-03-06 12:01:53.090 ,7,0,1.,0.8,0.,0.8,0.,0.8,0.,0.8
1979-03-06 12:01:53.890 ,7,0,2.,0.8,0.,0.8,0.,0.8,0.,0.8
1979-03-06 12:01:54.690 ,7,0,1.,0.8,0.,0.8,0.,0.8,0.,0.8
1979-03-06 12:01:55.490 ,7,0,3.,0.8,0.,0.8,0.,0.8,0.,0.8
1979-03-06 12:01:56.290 ,3,0,1.,0.8,0.,0.8,0.,0.8,0.,0.8
1979-03-06 12:01:57.090 ,3,0,2.,0.8,0.,0.8,0.,0.8,0.,0.8
1979-03-06 12:01:57.890 ,3,0,0.,0.8,0.,0.8,0.,0.8,0.,0.8
1979-03-06 12:01:58.690 ,3,0,0.,0.8,0.,0.8,0.,0.8,0.,0.8
1979-03-06 12:01:59.490 ,3,0,1.,0.8,0.,0.8,0.,0.8,0.,0.8
1979-03-06 12:02:00.290 ,3,0,10.,0.8,0.,0.8,1.,0.8,0.,0.8
1979-03-06 12:02:01.090 ,3,0,264.,0.8,14.,0.8,57.,0.8,4.,0.8
1979-03-06 12:02:01.890 ,3,0,296.,0.8,21.,0.8,76.,0.8,5.,0.8
1979-03-06 12:02:02.690 ,3,0,296.,0.8,19.,0.8,66.,0.8,3.,0.8
1979-03-06 12:02:03.490 ,3,0,296.,0.8,19.,0.8,70.,0.8,4.,0.8
1979-03-06 12:02:04.290 ,3,0,280.,0.8,17.,0.8,61.,0.8,3.,0.8
1979-03-06 12:02:05.090 ,3,0,312.,0.8,24.,0.8,62.,0.8,2.,0.8
1979-03-06 12:02:05.890 ,3,0,256.,0.8,16.,0.8,58.,0.8,4.,0.8
1979-03-06 12:02:06.690 ,3,0,456.,0.8,39.,0.8,62.,0.8,8.,0.8
1979-03-06 12:02:07.490 ,3,0,1248.,0.8,70.,0.8,76.,0.8,22.,0.8
1979-03-06 12:02:08.290 ,3,0,1248.,0.8,52.,0.8,70.,0.8,13.,0.8
1979-03-06 12:02:09.090 ,3,0,1248.,0.8,72.,0.8,90.,0.8,13.,0.8
1979-03-06 12:02:09.890 ,3,0,1216.,0.8,60.,0.8,70.,0.8,10.,0.8
1979-03-06 12:02:10.690 ,3,0,1280.,0.8,84.,0.8,72.,0.8,12.,0.8
1979-03-06 12:02:11.490 ,3,0,1216.,0.8,88.,0.8,80.,0.8,15.,0.8
1979-03-06 12:02:12.290 ,3,0,1344.,0.8,88.,0.8,76.,0.8,15.,0.8
1979-03-06 12:02:13.090 ,3,0,2368.,0.8,140.,0.8,86.,0.8,34.,0.8
1979-03-06 12:02:13.890 ,3,0,2496.,0.8,132.,0.8,98.,0.8,37.,0.8
1979-03-06 12:02:14.690 ,3,0,2496.,0.8,124.,0.8,86.,0.8,49.,0.8
1979-03-06 12:02:15.490 ,3,0,2496.,0.8,136.,0.8,90.,0.8,35.,0.8
1979-03-06 12:02:16.290 ,3,0,2496.,0.8,156.,0.8,102.,0.8,32.,0.8
1979-03-06 12:02:17.090 ,3,0,2368.,0.8,164.,0.8,92.,0.8,42.,0.8
1979-03-06 12:02:17.890 ,3,0,2496.,0.8,160.,0.8,120.,0.8,58.,0.8
1979-03-06 12:02:18.690 ,3,0,2240.,0.8,132.,0.8,102.,0.8,43.,0.8
1979-03-06 12:02:19.490 ,3,0,1568.,0.8,84.,0.8,86.,0.8,35.,0.8
1979-03-06 12:02:20.290 ,0,0,1664.,0.8,106.,0.8,90.,0.8,14.,0.8
1979-03-06 12:02:21.090 ,0,0,1664.,0.8,94.,0.8,100.,0.8,31.,0.8
1979-03-06 12:02:21.890 ,0,0,1760.,0.8,100.,0.8,94.,0.8,30.,0.8
1979-03-06 12:02:22.690 ,0,0,1792.,0.8,112.,0.8,116.,0.8,38.,0.8
1979-03-06 12:02:23.490 ,0,0,1984.,0.8,116.,0.8,114.,0.8,49.,0.8
1979-03-06 12:02:24.290 ,0,0,2048.,0.8,124.,0.8,94.,0.8,26.,0.8
1979-03-06 12:02:25.090 ,0,0,976.,0.8,72.,0.8,80.,0.8,9.,0.8
1979-03-06 12:02:25.890 ,0,0,944.,0.8,59.,0.8,70.,0.8,1.,0.8
1979-03-06 12:02:26.690 ,0,0,864.,0.8,55.,0.8,78.,0.8,5.,0.8
1979-03-06 12:02:27.490 ,0,0,880.,0.8,41.,0.8,62.,0.8,6.,0.8
1979-03-06 12:02:28.290 ,0,0,960.,0.8,56.,0.8,82.,0.8,3.,0.8
1979-03-06 12:02:29.090 ,0,0,944.,0.8,66.,0.8,86.,0.8,2.,0.8
1979-03-06 12:02:29.890 ,0,0,928.,0.8,54.,0.8,96.,0.8,7.,0.8
1979-03-06 12:02:30.690 ,0,0,784.,0.8,61.,0.8,92.,0.8,6.,0.8
1979-03-06 12:02:31.490 ,0,0,528.,0.8,26.,0.8,57.,0.8,4.,0.8
1979-03-06 12:02:32.290 ,0,0,496.,0.8,27.,0.8,70.,0.8,6.,0.8
1979-03-06 12:02:33.090 ,0,0,528.,0.8,43.,0.8,64.,0.8,3.,0.8
1979-03-06 12:02:33.890 ,0,0,512.,0.8,30.,0.8,72.,0.8,9.,0.8
1979-03-06 12:02:34.690 ,0,0,488.,0.8,28.,0.8,59.,0.8,8.,0.8
1979-03-06 12:02:35.490 ,0,0,512.,0.8,38.,0.8,86.,0.8,5.,0.8
1979-03-06 12:02:36.290 ,0,0,496.,0.8,31.,0.8,96.,0.8,5.,0.8
1979-03-06 12:02:37.090 ,0,0,416.,0.8,33.,0.8,96.,0.8,5.,0.8
1979-03-06 12:02:37.890 ,0,0,432.,0.8,27.,0.8,74.,0.8,4.,0.8
1979-03-06 12:02:38.690 ,0,0,416.,0.8,34.,0.8,76.,0.8,7.,0.8
1979-03-06 12:02:39.490 ,0,0,432.,0.8,25.,0.8,102.,0.8,1.,0.8
1979-03-06 12:02:40.290 ,0,0,416.,0.8,38.,0.8,84.,0.8,6.,0.8
1979-03-06 12:02:41.090 ,0,0,448.,0.8,24.,0.8,82.,0.8,8.,0.8
1979-03-06 12:02:41.890 ,0,0,472.,0.8,30.,0.8,96.,0.8,7.,0.8
1979-03-06 12:02:42.690 ,0,0,448.,0.8,18.,0.8,78.,0.8,10.,0.8
1979-03-06 12:02:43.490 ,0,0,432.,0.8,20.,0.8,88.,0.8,5.,0.8
1979-03-06 12:02:44.290 ,4,0,480.,0.8,32.,0.8,84.,0.8,3.,0.8
1979-03-06 12:02:45.090 ,4,0,448.,0.8,24.,0.8,88.,0.8,10.,0.8
1979-03-06 12:02:45.890 ,4,0,440.,0.8,27.,0.8,80.,0.8,10.,0.8
1979-03-06 12:02:46.690 ,4,0,432.,0.8,19.,0.8,86.,0.8,5.,0.8
1979-03-06 12:02:47.490 ,4,0,440.,0.8,28.,0.8,96.,0.8,6.,0.8
1979-03-06 12:02:48.290 ,4,0,480.,0.8,31.,0.8,98.,0.8,11.,0.8
1979-03-06 12:02:49.090 ,4,0,528.,0.8,45.,0.8,86.,0.8,7.,0.8
1979-03-06 12:02:49.890 ,4,0,592.,0.8,41.,0.8,88.,0.8,7.,0.8
1979-03-06 12:02:50.690 ,4,0,608.,0.8,42.,0.8,100.,0.8,10.,0.8
1979-03-06 12:02:51.490 ,4,0,544.,0.8,58.,0.8,104.,0.8,12.,0.8
1979-03-06 12:02:52.290 ,4,0,608.,0.8,55.,0.8,100.,0.8,21.,0.8
1979-03-06 12:02:53.090 ,4,0,640.,0.8,47.,0.8,106.,0.8,10.,0.8
1979-03-06 12:02:53.890 ,4,0,624.,0.8,40.,0.8,82.,0.8,16.,0.8
1979-03-06 12:02:54.690 ,4,0,880.,0.8,74.,0.8,124.,0.8,31.,0.8
1979-03-06 12:02:55.490 ,4,0,1248.,0.8,108.,0.8,156.,0.8,31.,0.8
1979-03-06 12:02:56.290 ,4,0,1376.,0.8,128.,0.8,168.,0.8,40.,0.8
1979-03-06 12:02:57.090 ,4,0,1280.,0.8,128.,0.8,188.,0.8,29.,0.8
1979-03-06 12:02:57.890 ,4,0,1280.,0.8,128.,0.8,196.,0.8,41.,0.8
1979-03-06 12:02:58.690 ,4,0,1280.,0.8,132.,0.8,140.,0.8,37.,0.8
1979-03-06 12:02:59.490 ,4,0,1280.,0.8,106.,0.8,156.,0.8,32.,0.8
1979-03-06 12:03:00.290 ,4,0,1216.,0.8,126.,0.8,160.,0.8,32.,0.8
1979-03-06 12:03:01.090 ,4,0,2368.,0.8,240.,0.8,208.,0.8,82.,0.8
1979-03-06 12:03:01.890 ,4,0,2880.,0.8,264.,0.8,212.,0.8,90.,0.8
1979-03-06 12:03:02.690 ,4,0,2880.,0.8,256.,0.8,240.,0.8,74.,0.8
1979-03-06 12:03:03.490 ,4,0,2944.,0.8,252.,0.8,204.,0.8,78.,0.8
1979-03-06 12:03:04.290 ,4,0,2944.,0.8,248.,0.8,232.,0.8,82.,0.8
1979-03-06 12:03:05.090 ,4,0,2880.,0.8,272.,0.8,228.,0.8,94.,0.8
1979-03-06 12:03:05.890 ,4,0,2944.,0.8,272.,0.8,232.,0.8,114.,0.8
1979-03-06 12:03:06.690 ,4,0,2752.,0.8,280.,0.8,208.,0.8,128.,0.8
1979-03-06 12:03:07.490 ,4,0,2432.,0.8,224.,0.8,132.,0.8,148.,0.8
1979-03-06 12:03:08.290 ,7,0,2496.,0.8,256.,0.8,152.,0.8,156.,0.8
1979-03-06 12:03:09.090 ,7,0,2432.,0.8,236.,0.8,152.,0.8,172.,0.8
1979-03-06 12:03:09.890 ,7,0,2304.,0.8,248.,0.8,128.,0.8,168.,0.8
1979-03-06 12:03:10.690 ,7,0,2560.,0.8,224.,0.8,152.,0.8,144.,0.8
1979-03-06 12:03:11.490 ,7,0,2368.,0.8,240.,0.8,176.,0.8,184.,0.8
1979-03-06 12:03:12.290 ,7,0,2368.,0.8,236.,0.8,156.,0.8,192.,0.8
1979-03-06 12:03:13.090 ,7,0,1024.,0.8,92.,0.8,132.,0.8,45.,0.8
1979-03-06 12:03:13.890 ,7,0,768.,0.8,84.,0.8,136.,0.8,41.,0.8
1979-03-06 12:03:14.690 ,7,0,800.,0.8,76.,0.8,140.,0.8,33.,0.8
1979-03-06 12:03:15.490 ,7,0,800.,0.8,68.,0.8,144.,0.8,37.,0.8
1979-03-06 12:03:16.290 ,7,0,864.,0.8,84.,0.8,116.,0.8,36.,0.8
1979-03-06 12:03:17.090 ,7,0,832.,0.8,110.,0.8,118.,0.8,34.,0.8
1979-03-06 12:03:17.890 ,7,0,864.,0.8,80.,0.8,120.,0.8,30.,0.8
1979-03-06 12:03:18.690 ,7,0,672.,0.8,63.,0.8,118.,0.8,31.,0.8
1979-03-06 12:03:19.490 ,7,0,440.,0.8,53.,0.8,128.,0.8,26.,0.8
1979-03-06 12:03:20.290 ,7,0,432.,0.8,47.,0.8,108.,0.8,28.,0.8
1979-03-06 12:03:21.090 ,7,0,456.,0.8,40.,0.8,104.,0.8,17.,0.8
1979-03-06 12:03:21.890 ,7,0,384.,0.8,58.,0.8,136.,0.8,20.,0.8
1979-03-06 12:03:22.690 ,7,0,392.,0.8,48.,0.8,110.,0.8,24.,0.8
1979-03-06 12:03:23.490 ,7,0,424.,0.8,48.,0.8,120.,0.8,18.,0.8
1979-03-06 12:03:24.290 ,7,0,376.,0.8,38.,0.8,106.,0.8,25.,0.8
1979-03-06 12:03:25.090 ,7,0,53.,0.8,4.,0.8,19.,0.8,1.,0.8
1979-03-06 12:03:25.890 ,7,0,2.,0.8,0.,0.8,0.,0.8,0.,0.8
1979-03-06 12:03:26.690 ,7,0,1.,0.8,0.,0.8,0.,0.8,0.,0.8
1979-03-06 12:03:27.490 ,7,0,2.,0.8,0.,0.8,0.,0.8,0.,0.8
1979-03-06 12:03:28.290 ,7,0,3.,0.8,0.,0.8,0.,0.8,0.,0.8
1979-03-06 12:03:29.090 ,7,0,2.,0.8,0.,0.8,0.,0.8,0.,0.8
1979-03-06 12:03:29.890 ,7,0,1.,0.8,0.,0.8,0.,0.8,0.,0.8
1979-03-06 12:03:30.690 ,7,0,1.,0.8,0.,0.8,0.,0.8,0.,0.8
1979-03-06 12:03:31.490 ,7,0,2.,0.8,0.,0.8,1.,0.8,0.,0.8
1979-03-06 12:03:32.290 ,3,0,0.,0.8,0.,0.8,0.,0.8,0.,0.8
1979-03-06 12:03:33.090 ,3,0,1.,0.8,0.,0.8,0.,0.8,0.,0.8
1979-03-06 12:03:33.890 ,3,0,2.,0.8,0.,0.8,0.,0.8,0.,0.8
1979-03-06 12:03:34.690 ,3,0,2.,0.8,0.,0.8,0.,0.8,0.,0.8
1979-03-06 12:03:35.490 ,3,0,1.,0.8,0.,0.8,1.,0.8,0.,0.8
1979-03-06 12:03:36.290 ,3,0,4.,0.8,3.,0.8,0.,0.8,0.,0.8
1979-03-06 12:03:37.090 ,3,0,252.,0.8,44.,0.8,94.,0.8,35.,0.8
1979-03-06 12:03:37.890 ,3,0,320.,0.8,63.,0.8,100.,0.8,48.,0.8
1979-03-06 12:03:38.690 ,3,0,272.,0.8,56.,0.8,120.,0.8,25.,0.8
1979-03-06 12:03:39.490 ,3,0,248.,0.8,42.,0.8,88.,0.8,30.,0.8
1979-03-06 12:03:40.290 ,3,0,236.,0.8,33.,0.8,112.,0.8,47.,0.8
1979-03-06 12:03:41.090 ,3,0,232.,0.8,42.,0.8,98.,0.8,44.,0.8
1979-03-06 12:03:41.890 ,3,0,236.,0.8,38.,0.8,82.,0.8,33.,0.8
1979-03-06 12:03:42.690 ,3,0,328.,0.8,48.,0.8,94.,0.8,24.,0.8
1979-03-06 12:03:43.490 ,3,0,832.,0.8,88.,0.8,168.,0.8,45.,0.8
1979-03-06 12:03:44.290 ,3,0,784.,0.8,76.,0.8,144.,0.8,54.,0.8
1979-03-06 12:03:45.090 ,3,0,736.,0.8,49.,0.8,148.,0.8,42.,0.8
1979-03-06 12:03:45.890 ,3,0,672.,0.8,63.,0.8,120.,0.8,32.,0.8
1979-03-06 12:03:46.690 ,3,0,656.,0.8,86.,0.8,144.,0.8,52.,0.8
1979-03-06 12:03:47.490 ,3,0,704.,0.8,68.,0.8,128.,0.8,30.,0.8
1979-03-06 12:03:48.290 ,3,0,720.,0.8,64.,0.8,136.,0.8,43.,0.8
1979-03-06 12:03:49.090 ,3,0,1344.,0.8,116.,0.8,116.,0.8,148.,0.8
1979-03-06 12:03:49.890 ,3,0,1536.,0.8,144.,0.8,136.,0.8,192.,0.8
1979-03-06 12:03:50.690 ,3,0,1600.,0.8,114.,0.8,116.,0.8,212.,0.8
1979-03-06 12:03:51.490 ,3,0,1568.,0.8,172.,0.8,148.,0.8,252.,0.8
1979-03-06 12:03:52.290 ,3,0,1600.,0.8,156.,0.8,144.,0.8,248.,0.8
1979-03-06 12:03:53.090 ,3,0,1472.,0.8,156.,0.8,136.,0.8,280.,0.8
1979-03-06 12:03:53.890 ,3,0,1472.,0.8,168.,0.8,144.,0.8,272.,0.8
1979-03-06 12:03:54.690 ,3,0,1920.,0.8,204.,0.8,128.,0.8,352.,0.8
1979-03-06 12:03:55.490 ,3,0,2016.,0.8,204.,0.8,114.,0.8,376.,0.8
1979-03-06 12:03:56.290 ,0,0,2176.,0.8,192.,0.8,120.,0.8,376.,0.8
1979-03-06 12:03:57.090 ,0,0,2240.,0.8,216.,0.8,136.,0.8,384.,0.8
1979-03-06 12:03:57.890 ,0,0,2176.,0.8,212.,0.8,136.,0.8,376.,0.8
1979-03-06 12:03:58.690 ,0,0,2240.,0.8,212.,0.8,136.,0.8,360.,0.8
1979-03-06 12:03:59.490 ,0,0,2112.,0.8,208.,0.8,136.,0.8,408.,0.8
1979-03-06 12:04:00.290 ,0,0,2048.,0.8,232.,0.8,152.,0.8,400.,0.8
1979-03-06 12:04:01.090 ,0,0,1088.,0.8,114.,0.8,136.,0.8,96.,0.8
1979-03-06 12:04:01.890 ,0,0,912.,0.8,100.,0.8,136.,0.8,74.,0.8
1979-03-06 12:04:02.690 ,0,0,944.,0.8,90.,0.8,152.,0.8,64.,0.8
1979-03-06 12:04:03.490 ,0,0,864.,0.8,96.,0.8,140.,0.8,82.,0.8
1979-03-06 12:04:04.290 ,0,0,880.,0.8,114.,0.8,156.,0.8,82.,0.8
1979-03-06 12:04:05.090 ,0,0,896.,0.8,96.,0.8,140.,0.8,88.,0.8
1979-03-06 12:04:05.890 ,0,0,880.,0.8,104.,0.8,148.,0.8,78.,0.8
1979-03-06 12:04:06.690 ,0,0,704.,0.8,72.,0.8,120.,0.8,66.,0.8
1979-03-06 12:04:07.490 ,0,0,432.,0.8,52.,0.8,92.,0.8,34.,0.8
1979-03-06 12:04:08.290 ,0,0,400.,0.8,44.,0.8,90.,0.8,37.,0.8
1979-03-06 12:04:09.090 ,0,0,432.,0.8,42.,0.8,78.,0.8,22.,0.8
1979-03-06 12:04:09.890 ,0,0,448.,0.8,42.,0.8,70.,0.8,24.,0.8
1979-03-06 12:04:10.690 ,0,0,376.,0.8,37.,0.8,86.,0.8,43.,0.8
1979-03-06 12:04:11.490 ,0,0,424.,0.8,49.,0.8,82.,0.8,30.,0.8
1979-03-06 12:04:12.290 ,0,0,432.,0.8,49.,0.8,84.,0.8,32.,0.8
1979-03-06 12:04:13.090 ,0,0,312.,0.8,24.,0.8,55.,0.8,18.,0.8
1979-03-06 12:04:13.890 ,0,0,312.,0.8,31.,0.8,52.,0.8,16.,0.8
1979-03-06 12:04:14.690 ,0,0,328.,0.8,40.,0.8,56.,0.8,21.,0.8
1979-03-06 12:04:15.490 ,0,0,304.,0.8,33.,0.8,64.,0.8,18.,0.8
1979-03-06 12:04:16.290 ,0,0,280.,0.8,30.,0.8,61.,0.8,17.,0.8
1979-03-06 12:04:17.090 ,0,0,320.,0.8,26.,0.8,47.,0.8,16.,0.8
1979-03-06 12:04:17.890 ,0,0,304.,0.8,31.,0.8,49.,0.8,16.,0.8
1979-03-06 12:04:18.690 ,0,0,312.,0.8,19.,0.8,54.,0.8,8.,0.8
1979-03-06 12:04:19.490 ,0,0,280.,0.8,24.,0.8,47.,0.8,9.,0.8
1979-03-06 12:04:20.290 ,4,0,280.,0.8,41.,0.8,61.,0.8,25.,0.8
1979-03-06 12:04:21.090 ,4,0,296.,0.8,31.,0.8,44.,0.8,17.,0.8
1979-03-06 12:04:21.890 ,4,0,256.,0.8,25.,0.8,56.,0.8,7.,0.8
1979-03-06 12:04:22.690 ,4,0,272.,0.8,21.,0.8,53.,0.8,13.,0.8
1979-03-06 12:04:23.490 ,4,0,272.,0.8,23.,0.8,53.,0.8,8.,0.8
1979-03-06 12:04:24.290 ,4,0,280.,0.8,17.,0.8,39.,0.8,12.,0.8
1979-03-06 12:04:25.090 ,4,0,328.,0.8,32.,0.8,62.,0.8,28.,0.8
1979-03-06 12:04:25.890 ,4,0,352.,0.8,29.,0.8,76.,0.8,26.,0.8
1979-03-06 12:04:26.690 ,4,0,400.,0.8,40.,0.8,66.,0.8,19.,0.8
1979-03-06 12:04:27.490 ,4,0,416.,0.8,44.,0.8,68.,0.8,30.,0.8
1979-03-06 12:04:28.290 ,4,0,416.,0.8,44.,0.8,80.,0.8,25.,0.8
1979-03-06 12:04:29.090 ,4,0,400.,0.8,57.,0.8,92.,0.8,23.,0.8
1979-03-06 12:04:29.890 ,4,0,424.,0.8,36.,0.8,110.,0.8,33.,0.8
1979-03-06 12:04:30.690 ,4,0,656.,0.8,70.,0.8,148.,0.8,51.,0.8
1979-03-06 12:04:31.490 ,4,0,1120.,0.8,112.,0.8,188.,0.8,88.,0.8
1979-03-06 12:04:32.290 ,4,0,1120.,0.8,120.,0.8,164.,0.8,90.,0.8
1979-03-06 12:04:33.090 ,4,0,1152.,0.8,114.,0.8,160.,0.8,74.,0.8
1979-03-06 12:04:33.890 ,4,0,1184.,0.8,108.,0.8,184.,0.8,78.,0.8
1979-03-06 12:04:34.690 ,4,0,1216.,0.8,122.,0.8,160.,0.8,66.,0.8
1979-03-06 12:04:35.490 ,4,0,1056.,0.8,122.,0.8,144.,0.8,82.,0.8
1979-03-06 12:04:36.290 ,4,0,752.,0.8,108.,0.8,118.,0.8,108.,0.8
1979-03-06 12:04:37.090 ,4,0,3456.,0.8,384.,0.8,204.,0.8,480.,0.8
1979-03-06 12:04:37.890 ,4,0,4096.,0.8,488.,0.8,204.,0.8,624.,0.8
1979-03-06 12:04:38.690 ,4,0,4032.,0.8,528.,0.8,228.,0.8,768.,0.8
1979-03-06 12:04:39.490 ,4,0,4224.,0.8,528.,0.8,232.,0.8,768.,0.8
1979-03-06 12:04:40.290 ,4,0,4096.,0.8,640.,0.8,248.,0.8,816.,0.8
1979-03-06 12:04:41.090 ,4,0,4736.,0.8,656.,0.8,228.,0.8,752.,0.8
1979-03-06 12:04:41.890 ,4,0,4480.,0.8,736.,0.8,264.,0.8,1024.,0.8
1979-03-06 12:04:42.690 ,4,0,4352.,0.8,624.,0.8,256.,0.8,960.,0.8
1979-03-06 12:04:43.490 ,4,0,3712.,0.8,472.,0.8,212.,0.8,544.,0.8
1979-03-06 12:04:44.290 ,7,0,3712.,0.8,456.,0.8,240.,0.8,560.,0.8
1979-03-06 12:04:45.090 ,7,0,3648.,0.8,480.,0.8,228.,0.8,504.,0.8
1979-03-06 12:04:45.890 ,7,0,3392.,0.8,352.,0.8,196.,0.8,392.,0.8
1979-03-06 12:04:46.690 ,7,0,3328.,0.8,312.,0.8,184.,0.8,344.,0.8
1979-03-06 12:04:47.490 ,7,0,3520.,0.8,336.,0.8,168.,0.8,280.,0.8
1979-03-06 12:04:48.290 ,7,0,3520.,0.8,344.,0.8,200.,0.8,228.,0.8
1979-03-06 12:04:49.090 ,7,0,1696.,0.8,144.,0.8,168.,0.8,61.,0.8
1979-03-06 12:04:49.890 ,7,0,1536.,0.8,132.,0.8,164.,0.8,58.,0.8
1979-03-06 12:04:50.690 ,7,0,1504.,0.8,140.,0.8,168.,0.8,70.,0.8
1979-03-06 12:04:51.490 ,7,0,1472.,0.8,136.,0.8,196.,0.8,74.,0.8
1979-03-06 12:04:52.290 ,7,0,1536.,0.8,140.,0.8,168.,0.8,49.,0.8
1979-03-06 12:04:53.090 ,7,0,1408.,0.8,128.,0.8,180.,0.8,36.,0.8
1979-03-06 12:04:53.890 ,7,0,1440.,0.8,124.,0.8,160.,0.8,53.,0.8
1979-03-06 12:04:54.690 ,7,0,880.,0.8,78.,0.8,140.,0.8,37.,0.8
1979-03-06 12:04:55.490 ,7,0,320.,0.8,37.,0.8,78.,0.8,20.,0.8
1979-03-06 12:04:56.290 ,7,0,328.,0.8,45.,0.8,84.,0.8,25.,0.8
1979-03-06 12:04:57.090 ,7,0,328.,0.8,39.,0.8,78.,0.8,14.,0.8
1979-03-06 12:04:57.890 ,7,0,320.,0.8,27.,0.8,82.,0.8,13.,0.8
1979-03-06 12:04:58.690 ,7,0,304.,0.8,33.,0.8,92.,0.8,19.,0.8
1979-03-06 12:04:59.490 ,7,0,336.,0.8,39.,0.8,98.,0.8,26.,0.8
1979-03-06 12:05:00.290 ,7,0,336.,0.8,37.,0.8,88.,0.8,24.,0.8
1979-03-06 12:05:01.090 ,7,0,48.,0.8,6.,0.8,16.,0.8,2.,0.8
1979-03-06 12:05:01.890 ,7,0,1.,0.8,0.,0.8,0.,0.8,0.,0.8
1979-03-06 12:05:02.690 ,7,0,1.,0.8,0.,0.8,1.,0.8,0.,0.8
1979-03-06 12:05:03.490 ,7,0,2.,0.8,0.,0.8,0.,0.8,0.,0.8
1979-03-06 12:05:04.290 ,7,0,1.,0.8,0.,0.8,0.,0.8,0.,0.8
1979-03-06 12:05:05.090 ,7,0,1.,0.8,0.,0.8,0.,0.8,0.,0.8
1979-03-06 12:05:05.890 ,7,0,2.,0.8,0.,0.8,1.,0.8,0.,0.8
1979-03-06 12:05:06.690 ,7,0,1.,0.8,0.,0.8,0.,0.8,0.,0.8
1979-03-06 12:05:07.490 ,7,0,2.,0.8,0.,0.8,0.,0.8,0.,0.8
1979-03-06 12:05:08.290 ,3,0,2.,0.8,0.,0.8,0.,0.8,0.,0.8
1979-03-06 12:05:09.090 ,3,0,2.,0.8,0.,0.8,0.,0.8,0.,0.8
1979-03-06 12:05:09.890 ,3,0,2.,0.8,0.,0.8,0.,0.8,0.,0.8
1979-03-06 12:05:10.690 ,3,0,2.,0.8,0.,0.8,1.,0.8,0.,0.8
1979-03-06 12:05:11.490 ,3,0,2.,0.8,0.,0.8,0.,0.8,0.,0.8
1979-03-06 12:05:12.290 ,3,0,3.,0.8,1.,0.8,0.,0.8,0.,0.8
1979-03-06 12:05:13.090 ,3,0,118.,0.8,7.,0.8,44.,0.8,6.,0.8
1979-03-06 12:05:13.890 ,3,0,132.,0.8,11.,0.8,37.,0.8,1.,0.8
1979-03-06 12:05:14.690 ,3,0,140.,0.8,17.,0.8,42.,0.8,4.,0.8
1979-03-06 12:05:15.490 ,3,0,152.,0.8,18.,0.8,45.,0.8,6.,0.8
1979-03-06 12:05:16.290 ,3,0,164.,0.8,11.,0.8,38.,0.8,5.,0.8
1979-03-06 12:05:17.090 ,3,0,136.,0.8,19.,0.8,42.,0.8,4.,0.8
1979-03-06 12:05:17.890 ,3,0,148.,0.8,15.,0.8,42.,0.8,9.,0.8
1979-03-06 12:05:18.690 ,3,0,176.,0.8,18.,0.8,42.,0.8,4.,0.8
1979-03-06 12:05:19.490 ,3,0,288.,0.8,34.,0.8,60.,0.8,5.,0.8
1979-03-06 12:05:20.290 ,3,0,264.,0.8,17.,0.8,70.,0.8,10.,0.8
1979-03-06 12:05:21.090 ,3,0,252.,0.8,20.,0.8,66.,0.8,5.,0.8
1979-03-06 12:05:21.890 ,3,0,244.,0.8,15.,0.8,62.,0.8,4.,0.8
1979-03-06 12:05:22.690 ,3,0,248.,0.8,24.,0.8,64.,0.8,6.,0.8
1979-03-06 12:05:23.490 ,3,0,232.,0.8,21.,0.8,72.,0.8,8.,0.8